Weather History for KAPN - May, 2012

Change the Weather History Date:

Wednesday, May 9, 2012

  Actual Average Record
Temperature  
Mean Temperature 49 °F 50 °F  
Max Temperature 57 °F 62 °F 89 °F (1953)
Min Temperature 41 °F 38 °F 22 °F (1925)
Degree Days  
Heating Degree Days 16 15  
Month to date heating degree days 122 145  
Since 1 July heating degree days 6528 7704  
Cooling Degree Days 0 0  
Month to date cooling degree days 0 0  
Year to date cooling degree days 6 2  
Moisture  
Dew Point 42 °F    
Average Humidity 72    
Maximum Humidity 100    
Minimum Humidity 43    
Precipitation  
Precipitation 0.20 in 0.08 in 2.01 in (1924)
Month to date precipitation 1.37 0.71  
Year to date precipitation 8.23 7.94  
Sea Level Pressure  
Sea Level Pressure 29.80 in    
Wind  
Wind Speed 8 mph (NW)    
Max Wind Speed 17 mph    
Max Gust Speed 23 mph    
Visibility 9 miles    
Events Rain    
T = Trace of Precipitation, MM = Missing Value Source: NWS Daily Summary

Daily Weather History Graph

Daily Weather History Graph

Search for Another Location

Airport or City:

Trip Planner

Search our weather history database for the weather conditions in past years. The results will help you decide how hot, cold, wet, or windy it might be!

Date:

Astronomy

May. 09, 2012 Rise Set
Actual Time 6:11 AM EDT 8:50 PM EDT
Civil Twilight 5:38 AM EDT 9:24 PM EDT
Nautical Twilight 4:55 AM EDT 10:06 PM EDT
Astronomical Twilight 4:07 AM EDT 10:55 PM EDT
Moon 12:02 AM EDT (5/9) 9:22 AM EDT (5/9)
Length of Visible Light 15h 45m
Length of Day
14h 38m
Waning Gibbous, 83% of the Moon is Illuminated
May 9
Waning Gibbous
May 12
Last Quarter
May 20
New
May 28
First Quarter
Jun 4
Full

Hourly Weather History & Observations

Time (EDT) Temp. Windchill Dew Point Humidity Pressure Visibility Wind Dir Wind Speed Gust Speed Precip Events Conditions
12:23 AM 44.6 °F 43.1 °F 44.6 °F 100% 29.77 in 1.5 mi South 3.5 mph - N/A   Scattered Clouds
12:26 AM 42.8 °F 41.1 °F 42.8 °F 100% 29.77 in 0.8 mi South 3.5 mph - N/A   Scattered Clouds
12:38 AM 44.6 °F 43.1 °F 44.6 °F 100% 29.76 in 2.0 mi SSW 3.5 mph - N/A   Mostly Cloudy
12:46 AM 46.4 °F - 46.4 °F 100% 29.76 in 8.0 mi Calm Calm - N/A   Mostly Cloudy
12:54 AM 46.9 °F - 46.0 °F 97% 29.77 in 8.0 mi Calm Calm - N/A   Mostly Cloudy
1:54 AM 48.0 °F - 46.9 °F 96% 29.77 in 9.0 mi West 3.5 mph - N/A   Overcast
2:11 AM 48.2 °F - 46.4 °F 93% 29.77 in 8.0 mi Calm Calm - N/A   Overcast
2:30 AM 48.2 °F - 46.4 °F 93% 29.77 in 9.0 mi NW 4.6 mph - N/A   Mostly Cloudy
2:50 AM 46.4 °F 42.9 °F 46.4 °F 100% 29.76 in 10.0 mi NW 6.9 mph - N/A   Overcast
2:54 AM 46.9 °F - 46.0 °F 97% 29.77 in 10.0 mi NW 4.6 mph - N/A   Overcast
3:38 AM 46.4 °F 44.3 °F 44.6 °F 93% 29.76 in 10.0 mi NNW 4.6 mph - N/A   Overcast
3:54 AM 46.9 °F - 45.0 °F 93% 29.76 in 10.0 mi NNW 3.5 mph - N/A   Overcast
4:54 AM 46.9 °F - 45.0 °F 93% 29.77 in 10.0 mi WNW 3.5 mph - N/A   Overcast
5:05 AM 46.4 °F 45.2 °F 44.6 °F 93% 29.76 in 10.0 mi WNW 3.5 mph - N/A   Overcast
5:35 AM 46.4 °F 44.3 °F 44.6 °F 93% 29.76 in 10.0 mi Variable 4.6 mph - N/A   Overcast
5:54 AM 46.9 °F - 45.0 °F 93% 29.77 in 10.0 mi NW 5.8 mph - N/A   Overcast
6:54 AM 46.0 °F 43.9 °F 44.1 °F 93% 29.78 in 5.0 mi WNW 4.6 mph - 0.04 in Rain Rain
7:54 AM 46.0 °F 43.1 °F 45.0 °F 96% 29.79 in 7.0 mi NW 5.8 mph - 0.12 in Rain Light Rain
8:00 AM 46.4 °F 43.5 °F 44.6 °F 93% 29.78 in 7.0 mi NW 5.8 mph - 0.01 in Rain Light Rain
8:54 AM 46.9 °F - 45.0 °F 93% 29.80 in 6.0 mi NNW 8.1 mph - 0.03 in Rain Light Rain
9:02 AM 46.4 °F 41.9 °F 44.6 °F 93% 29.79 in 8.0 mi NNW 9.2 mph - 0.00 in Rain Light Rain
9:25 AM 46.4 °F 42.4 °F 44.6 °F 93% 29.79 in 10.0 mi NW 8.1 mph - 0.01 in   Overcast
9:54 AM 46.0 °F 40.6 °F 44.1 °F 93% 29.81 in 6.0 mi NNW 11.5 mph - 0.01 in   Overcast
10:05 AM 46.4 °F 41.9 °F 44.6 °F 93% 29.80 in 4.0 mi NNW 9.2 mph - N/A   Overcast
10:54 AM 46.0 °F 40.2 °F 43.0 °F 89% 29.82 in 10.0 mi NNW 12.7 mph - 0.00 in   Overcast
11:54 AM 46.9 °F - 43.0 °F 86% 29.82 in 10.0 mi NW 11.5 mph - N/A   Overcast
12:13 PM 48.2 °F - 42.8 °F 82% 29.81 in 10.0 mi NW 9.2 mph - N/A   Overcast
12:37 PM 50.0 °F - 42.8 °F 76% 29.81 in 10.0 mi NW 10.4 mph - N/A   Overcast
12:54 PM 51.1 °F - 43.0 °F 74% 29.81 in 10.0 mi NNW 12.7 mph 16.1 mph N/A   Overcast
1:54 PM 54.0 °F - 42.1 °F 64% 29.81 in 10.0 mi NW 8.1 mph - N/A   Overcast
2:21 PM 53.6 °F - 41.0 °F 62% 29.80 in 10.0 mi North 15.0 mph 20.7 mph N/A   Overcast
2:49 PM 53.6 °F - 41.0 °F 62% 29.81 in 10.0 mi NNW 12.7 mph - N/A   Overcast
2:54 PM 53.1 °F - 39.9 °F 61% 29.82 in 10.0 mi NNW 13.8 mph 18.4 mph N/A   Overcast
3:06 PM 53.6 °F - 39.2 °F 58% 29.81 in 10.0 mi NW 12.7 mph - N/A   Overcast
3:54 PM 54.0 °F - 39.9 °F 59% 29.81 in 10.0 mi North 15.0 mph 19.6 mph N/A   Overcast
4:54 PM 55.0 °F - 37.9 °F 53% 29.81 in 10.0 mi NNW 11.5 mph - N/A   Overcast
5:54 PM 55.0 °F - 37.0 °F 51% 29.82 in 10.0 mi NNW 12.7 mph - N/A   Overcast
6:54 PM 55.9 °F - 34.0 °F 44% 29.81 in 10.0 mi NNW 8.1 mph - N/A   Partly Cloudy
7:54 PM 54.0 °F - 32.0 °F 43% 29.82 in 10.0 mi North 15.0 mph - N/A   Scattered Clouds
8:54 PM 51.1 °F - 30.9 °F 46% 29.84 in 10.0 mi NNW 6.9 mph - N/A   Overcast
9:54 PM 50.0 °F - 30.9 °F 48% 29.86 in 10.0 mi North 10.4 mph - N/A   Overcast
10:54 PM 46.9 °F - 30.9 °F 54% 29.88 in 10.0 mi NW 9.2 mph - N/A   Partly Cloudy
11:54 PM 44.1 °F - 30.9 °F 60% 29.87 in 10.0 mi Calm Calm - N/A   Partly Cloudy